This is the latest recevied weather packets stored in our database for station/object DB0TGO-14. If no packets are shown the sender has not sent any weather packets the latest 10 day(s).
| Time | Temp. | Humidity | Pressure | Rain* | Wind** | Luminosity | Snow |
|---|---|---|---|---|---|---|---|
| 1777621410 | 17.22° C | 46% | 1030.6 hPa | 0 mm | - | - | - |
| 1777621290 | 16.67° C | 46% | 1030.6 hPa | 0 mm | - | - | - |
| 1777621228 | 16.67° C | 45% | 1030.6 hPa | 0 mm | - | - | - |
| 1777621175 | 16.67° C | 46% | 1030.7 hPa | 0 mm | - | - | - |
| 1777621065 | 17.22° C | 43% | 1030.6 hPa | 0 mm | - | - | - |
| 1777620947 | 16.67° C | 46% | 1030.6 hPa | 0 mm | - | - | - |
| 1777620844 | 16.67° C | 46% | 1030.7 hPa | 0 mm | - | - | - |
| 1777620735 | 16.67° C | 47% | 1030.7 hPa | 0 mm | - | - | - |
| 1777620630 | 16.67° C | 45% | 1030.6 hPa | 0 mm | - | - | - |
| 1777620516 | 16.67° C | 47% | 1030.7 hPa | 0 mm | - | - | - |
| 1777620405 | 16.67° C | 46% | 1030.6 hPa | 0 mm | - | - | - |
| 1777620305 | 16.67° C | 44% | 1030.7 hPa | 0 mm | - | - | - |
| 1777620185 | 16.11° C | 46% | 1030.7 hPa | 0 mm | - | - | - |
| 1777620102 | 16.11° C | 48% | 1030.7 hPa | 0 mm | - | - | - |
| 1777620080 | 16.11° C | 48% | 1030.7 hPa | 0 mm | - | - | - |
| 1777619980 | 15.56° C | 49% | 1030.7 hPa | 0 mm | - | - | - |
| 1777619880 | 15.56° C | 49% | 1030.6 hPa | 0 mm | - | - | - |
| 1777619775 | 15° C | 48% | 1030.7 hPa | 0 mm | - | - | - |
| 1777619663 | 15° C | 49% | 1030.7 hPa | 0 mm | - | - | - |
| 1777619555 | 14.44° C | 51% | 1030.7 hPa | 0 mm | - | - | - |
| 1777619450 | 14.44° C | 52% | 1030.7 hPa | 0 mm | - | - | - |
| 1777619340 | 14.44° C | 52% | 1030.7 hPa | 0 mm | - | - | - |
| 1777619223 | 14.44° C | 52% | 1030.7 hPa | 0 mm | - | - | - |
| 1777619122 | 14.44° C | 53% | 1030.7 hPa | 0 mm | - | - | - |
| 1777619025 | 14.44° C | 54% | 1030.7 hPa | 0 mm | - | - | - |
* Rain latest hour (hover to see other rain measurements)
** Current wind speed in m/s (hover to see current wind gust speed)